MinXSS-2 (43758 NORAD) Tracking and Keplerian Element Data

This shows tracking and keplerian element data for the satellite.

Feedback or suggestion? Click here.




ElementValue
Catalog43758
NameMinXSS-2
Epoch Orbit3264
Epoch Day191.16557023
Epoch Year2019
RAAN262.9647
Inclination97.7445
Eccentricity0.0014102
Argument of Perigee254.2422
Mean Anonmoly105.7244
Mean Motion14.95419878
Decay Rate1.77E-06
L11 43758U 18099A 19191.16557023 .00000177 00000-0 21225-4 0 9995
L22 43758 97.7445 262.9647 0014102 254.2422 105.7244 14.95419878 32644

Live tracking and technical data element details for MinXSS-2 (NORAD 43758). MinXSS-2 can be tracked NOW for your location showing map with azimuth and elevation plus other details from your city location.

Track the satellite on the map from your city or location and see movement details for azimuth, elevation, latitude, longitude, range, height, and movement on the map or in text.







IsCatalogInMostPopularTable: catalog: 43758, numindb: 106
Update: records affected: 1



GetName: 43758 MinXSS-2

Hit Count: updated at: Tue, 16 Jul 2019 21:21:30 GMT